Wind_Speed
16 13 9 8 7 5 4 5 6 2 4 5 4 4 4 3 2 2 3 4 4 3 0 1 2 2 2 3 4 4 3 2 2 1 1 2 5 6 7 8 12 8 12
13 11 10 8 7 5 3 2 3 3 4 6 6 6 6 5 4 3 3 4 4 3 3 3 4 4 5 5 5 5 5 5 4 4 5 5 5 5 8 9 9 5 10
13 10 9 7 6 5 3 1 1 0 1 5 7 7 7 6 5 5 4 5 6 5 5 6 6 6 8 8 8 7 7 7 7 6 6 8 8 9 7 9 5 9 10
12 11 8 6 5 4 3 2 0 2 3 3 5 7 8 8 7 7 7 7 7 7 7 7 8 8 9 10 10 10 10 9 9 8 7 10 10 11 11 10 8 8 10
14 11 8 6 5 4 4 3 2 2 3 4 5 6 7 8 8 8 9 9 9 9 9 9 8 9 9 10 10 10 10 10 11 11 11 12 8 12 11 13 11 10 10
14 13 11 11 11 10 9 6 6 6 5 5 6 7 8 9 10 10 11 11 11 11 11 11 10 10 10 10 10 10 10 11 12 12 14 11 10 9 9 11 12 11 11
17 16 16 19 15 13 13 12 10 9 9 9 9 10 11 12 13 14 14 15 14 15 14 14 13 13 13 12 12 12 12 12 12 13 15 15 12 14 8 11 12 14 14
23 20 18 19 21 22 23 17 15 14 13 13 13 14 14 15 17 18 19 19 19 19 20 19 18 17 17 16 16 15 14 15 13 15 18 16 16 17 14 14 13 14 15
29 30 30 26 22 23 32 30 28 25 23 20 19 19 18 20 21 21 21 22 23 24 25 24 25 22 22 21 20 19 18 18 17 17 18 18 15 14 15 16 16 15 15
29 29 28 26 24 22 21 25 25 24 24 24 23 22 21 21 22 22 23 22 25 25 26 29 28 28 26 24 24 23 23 21 22 19 21 22 24 18 14 17 20 18 18
28 27 27 27 24 23 22 22 21 22 21 21 22 25 22 21 19 19 21 22 23 25 28 30 30 31 31 30 29 28 26 22 23 24 25 26 29 27 27 27 23 23 20
27 27 27 27 27 24 24 21 21 20 20 20 22 24 23 24 23 24 22 24 25 22 21 27 32 32 33 29 27 27 31 30 28 29 29 29 30 31 28 29 31 28 25
25 26 28 27 26 26 24 23 22 22 23 21 22 23 23 24 25 23 25 24 26 24 23 25 24 19 25 26 29 30 28 31 32 31 33 35 34 35 35 33 32 32 30
25 26 25 26 25 25 23 23 22 23 24 23 23 24 26 26 26 27 26 27 26 28 21 26 30 31 28 24 29 31 31 28 29 30 32 36 39 41 41 39 37 34 34
23 23 24 24 24 23 23 22 21 21 22 22 22 23 24 27 28 28 30 29 27 27 28 27 28 28 33 35 29 29 33 34 35 30 29 34 39 42 43 42 38 36 35
22 22 22 22 23 22 21 21 20 20 22 23 22 23 22 26 26 28 28 28 29 29 30 31 30 28 26 27 34 35 27 32 34 35 37 33 33 40 43 44 43 41 38
21 22 21 22 23 24 21 22 21 21 23 23 23 23 24 26 26 28 28 28 28 33 33 33 29 29 28 28 27 30 33 32 27 39 39 35 31 32 39 45 48 46 44
21 21 22 23 25 26 23 23 22 23 23 23 23 24 25 27 26 28 27 27 30 31 30 30 32 32 31 31 31 31 31 31 37 30 37 37 35 36 34 38 46 51 49
22 23 23 23 25 26 24 23 23 23 24 24 24 23 26 25 27 27 27 27 30 28 27 28 29 29 30 32 32 35 34 32 32 34 34 35 37 39 36 32 38 45 51
21 22 21 24 24 24 23 22 23 23 23 23 22 23 25 26 27 28 26 28 29 29 27 28 28 27 26 28 31 35 34 33 31 31 31 34 31 34 39 40 36 36 48
20 22 23 23 24 25 26 25 25 25 23 21 21 23 25 26 27 27 28 28 28 28 27 29 29 26 25 26 27 32 31 37 35 34 32 29 35 33 36 38 41 37 32
21 22 22 22 25 24 24 23 23 23 21 20 22 23 25 26 26 26 28 29 29 30 28 27 27 26 24 23 17 22 10 25 21 19 25 33 37 38 35 35 41 39 36
21 21 20 22 23 24 24 23 24 22 22 23 25 25 25 25 25 26 28 29 29 29 26 28 26 26 24 23 18 9 5 7 14 23 32 34 26 30 33 37 39 38 35
19 19 21 21 23 23 24 23 24 24 24 24 25 25 25 24 26 27 30 28 28 28 28 27 26 24 22 22 22 12 22 20 5 10 21 35 38 26 28 31 32 35 35
18 19 19 19 21 22 22 21 22 23 22 23 24 25 25 25 26 27 31 30 26 28 28 28 26 24 23 21 18 21 22 19 25 8 11 12 27 26 23 26 28 28 28
16 18 18 19 20 21 21 21 22 23 23 23 25 23 24 26 27 27 30 29 27 30 28 27 25 24 23 22 21 20 19 10 12 9 9 11 16 26 20 11 8 7 11
Wind_Direction
70 110 118 104 94 86 68 42 39 138 188 205 210 210 197 196 177 150 147 158 162 151 152 237 233 222 248 261 285 295 285 272 284 297 147 137 154 153 152 144 143 151 150
76 109 119 111 110 109 110 92 51 65 197 213 213 216 211 215 212 204 196 203 208 219 241 242 254 269 271 272 278 280 269 267 259 238 214 190 188 190 184 169 193 193 155
72 95 98 106 101 101 99 82 22 346 212 225 227 225 222 230 233 238 230 230 232 233 242 262 254 256 278 283 283 272 264 260 253 242 233 219 206 205 204 187 195 163 165
69 81 84 102 100 95 92 86 339 319 325 310 252 237 237 241 248 245 242 235 233 233 246 257 260 265 266 273 278 278 270 256 249 242 231 241 214 206 205 198 199 192 184
58 53 66 80 65 53 41 32 360 313 285 287 279 265 258 255 260 259 250 242 242 245 249 247 249 262 272 276 275 274 266 261 252 243 241 243 241 207 213 205 209 205 199
51 53 63 57 46 32 18 7 348 333 317 296 281 275 273 273 270 265 264 264 262 254 243 244 249 254 257 264 267 265 263 257 253 256 246 248 229 194 203 217 201 218 233
49 53 54 38 34 33 25 13 357 342 331 320 305 291 280 277 273 272 270 266 261 258 255 251 249 247 249 254 257 256 253 252 250 251 247 249 214 233 239 226 216 214 226
56 52 48 38 36 35 27 27 17 4 346 334 323 313 302 292 284 278 275 275 275 271 264 254 244 245 247 249 246 247 249 249 245 251 261 258 245 222 238 234 227 223 229
59 57 49 50 46 41 39 40 35 30 23 14 4 348 330 314 297 287 283 279 274 270 270 268 267 257 250 243 241 242 241 242 246 246 249 252 248 231 242 249 240 236 236
55 51 48 45 42 40 35 37 34 31 28 26 19 2 346 328 318 304 297 292 289 280 279 274 271 267 263 259 257 248 237 234 235 238 247 247 246 247 243 248 247 245 249
51 48 43 39 34 31 29 26 23 21 19 14 7 360 356 348 340 332 319 309 306 290 288 279 276 275 271 264 254 253 251 237 225 223 231 239 245 250 246 248 249 247 247
46 43 41 35 30 25 25 20 18 15 12 9 6 3 356 349 342 336 330 330 320 315 308 297 284 273 270 261 257 255 245 240 238 228 221 230 233 242 246 247 248 246 244
41 39 35 32 27 23 19 15 13 10 7 3 4 3 357 353 347 340 332 330 324 320 327 315 303 304 275 258 253 246 242 233 237 237 236 223 224 230 237 242 248 247 245
37 31 27 23 20 17 12 9 4 4 1 358 358 2 358 354 349 342 335 329 326 323 326 325 318 305 306 307 268 259 250 245 229 234 241 239 227 224 230 237 243 243 244
32 27 20 17 13 8 6 1 359 359 357 353 354 355 357 354 348 343 337 329 326 321 318 319 316 315 313 300 299 293 258 251 250 249 241 242 238 235 231 232 236 239 240
25 21 14 10 8 3 359 355 349 357 349 351 352 353 358 352 347 342 337 332 329 331 326 316 313 310 308 308 306 293 302 270 256 251 249 249 246 239 237 234 235 236 237
21 13 9 4 3 358 355 350 349 355 348 349 349 348 354 349 346 341 335 332 331 330 324 320 318 314 310 305 303 306 304 289 286 256 247 248 245 244 242 242 241 238 238
18 11 7 6 1 355 354 351 349 349 345 345 344 344 352 345 345 340 336 333 331 329 324 324 327 328 319 312 310 303 300 300 284 292 257 244 244 246 247 244 245 243 238
18 10 6 3 3 356 353 352 350 346 344 344 347 354 347 346 346 343 337 337 337 336 333 329 323 325 322 315 310 307 300 291 287 284 281 255 244 244 244 248 245 243 241
15 9 3 5 5 359 354 351 347 344 343 345 351 351 350 349 346 347 342 340 342 339 335 335 329 328 319 316 315 306 294 286 278 274 274 271 262 248 247 242 246 247 241
14 10 16 8 7 358 355 354 351 347 347 351 352 351 352 351 351 350 345 343 343 342 336 337 332 329 327 326 321 317 301 287 268 260 259 261 258 257 249 242 241 241 240
18 14 15 7 4 2 358 353 349 347 349 354 352 353 351 351 353 352 349 346 343 341 339 341 336 334 326 331 321 310 311 316 293 291 259 243 244 251 250 246 239 237 236
17 15 11 9 9 5 2 357 355 355 355 356 355 353 349 352 354 353 351 347 343 343 338 338 336 336 329 331 330 311 315 305 337 305 308 307 286 251 241 238 237 235 234
15 16 15 12 7 7 6 3 2 359 357 354 354 351 350 354 355 354 351 349 350 347 342 339 337 336 333 328 332 321 312 298 306 312 302 304 302 295 263 245 240 237 238
16 19 14 6 6 6 7 7 6 359 356 351 355 354 353 357 355 354 352 348 348 350 345 343 339 342 340 328 327 327 318 309 273 281 296 304 301 287 284 264 245 243 245
26 18 6 6 7 7 6 7 5 359 354 352 357 359 355 355 355 354 352 347 352 353 350 348 345 347 345 339 337 332 325 315 310 310 310 315 303 302 303 283 21 284 295
Height
781 786 789 792 794 795 795 796 796 797 798 799 799 800 800 800 800 800 800 800 800 801 801 802 802 802 802 801 801 801 801 801 801 800 800 800 800 801 801 801 802 805 806
787 791 791 793 794 795 796 796 797 798 798 799 799 799 799 800 800 800 800 800 801 802 802 801 802 802 802 802 802 801 801 802 801 801 802 802 802 802 802 803 803 805 806
792 794 795 796 797 798 798 799 799 799 799 799 800 800 800 800 800 800 800 801 801 801 800 801 801 801 802 802 802 801 801 801 801 801 802 803 802 803 804 805 804 805 806
796 799 800 799 799 800 800 801 801 802 803 803 803 802 802 801 801 800 799 799 799 799 799 800 800 799 799 799 800 801 801 801 801 801 802 801 799 800 803 805 806 806 806
801 803 803 802 803 803 803 803 803 803 802 802 802 803 803 802 802 801 799 798 798 798 798 797 796 798 798 798 797 798 799 800 800 800 800 797 798 797 801 804 806 807 808
806 808 807 807 807 807 806 806 805 805 804 803 802 802 802 802 801 800 800 799 798 796 794 794 794 794 794 795 796 795 796 797 798 800 799 796 799 797 798 802 805 807 809
812 812 812 811 810 810 809 809 807 806 806 805 804 803 801 801 800 799 798 797 796 794 793 792 790 789 790 791 792 792 793 794 796 797 797 795 796 797 798 800 803 805 808
817 816 815 813 813 813 812 811 810 809 807 806 805 804 802 800 799 798 797 796 795 794 792 789 785 785 785 786 786 788 789 791 792 793 793 792 792 793 796 798 800 802 804
822 820 819 818 817 816 816 814 813 812 810 808 806 805 803 801 798 796 794 793 792 790 789 788 789 785 782 779 779 781 783 785 789 790 790 789 789 790 793 796 798 799 801
825 824 824 823 822 820 819 817 815 814 813 811 809 806 802 799 797 795 793 791 788 788 786 786 785 784 782 781 781 779 776 778 779 784 786 786 785 786 789 793 795 796 798
828 829 829 827 826 824 822 820 819 817 815 813 811 808 804 801 797 793 791 789 786 784 782 781 781 779 779 777 774 774 777 775 772 773 776 780 781 782 784 787 791 793 794
833 833 834 833 832 828 825 824 821 818 816 814 811 809 807 804 801 798 792 788 783 780 777 776 774 773 772 771 769 766 767 768 769 766 764 768 773 776 778 782 785 787 790
839 838 837 837 835 832 829 826 824 821 818 816 813 811 808 804 801 797 794 789 785 780 775 770 768 767 766 762 761 761 756 758 760 759 759 756 759 765 768 772 777 781 784
842 842 841 840 838 835 833 830 828 825 822 818 816 812 809 806 802 799 795 791 785 781 776 772 766 761 758 756 757 755 754 752 750 752 752 753 751 750 756 761 766 771 775
845 846 845 843 842 839 836 834 830 828 825 821 818 816 812 809 805 801 797 793 788 781 777 773 768 761 756 752 750 749 748 747 746 744 744 745 747 748 747 749 754 759 764
849 849 848 846 845 843 840 838 833 830 828 823 820 818 815 813 809 804 798 793 789 785 781 775 767 761 757 751 746 743 740 740 740 737 738 739 738 741 742 743 744 748 752
852 853 852 849 849 846 842 839 835 831 829 825 822 820 816 814 810 806 801 796 791 784 781 775 767 760 755 751 745 740 736 734 731 732 730 732 732 732 735 737 739 739 742
856 856 855 854 853 850 845 842 837 833 831 826 823 820 818 815 810 806 803 798 795 789 782 775 769 762 757 751 744 738 733 727 725 723 723 723 724 727 726 726 730 732 732
860 860 858 857 855 853 848 844 840 837 832 828 824 822 821 817 813 808 804 800 794 788 785 780 773 768 760 753 745 737 731 725 720 716 714 714 714 716 718 718 719 721 723
864 863 861 859 858 855 849 844 841 837 833 830 828 826 821 817 815 810 804 800 795 789 784 779 773 767 762 754 744 735 726 718 713 709 705 706 707 707 709 710 712 711 714
866 865 863 862 862 858 853 847 844 839 835 832 830 828 824 820 816 811 806 801 796 791 785 780 773 766 759 754 743 729 716 709 702 699 701 698 699 699 701 700 704 705 706
869 869 869 867 864 861 856 851 848 843 839 836 833 830 828 823 818 813 809 803 798 791 786 780 774 767 762 757 749 738 711 697 693 690 688 687 686 690 691 692 694 696 697
873 873 871 868 867 864 859 855 851 847 843 838 835 833 830 825 820 816 812 806 800 794 787 782 776 770 761 757 755 752 732 712 709 696 687 683 681 680 680 682 686 687 688
875 874 873 872 871 867 863 860 855 850 846 843 839 837 833 827 822 818 813 808 802 796 790 783 777 771 765 757 753 749 745 739 724 700 693 685 680 678 676 676 676 677 680
878 877 877 876 874 870 867 864 859 855 851 846 842 839 836 830 825 820 815 810 804 797 791 784 778 772 767 760 754 748 742 735 727 720 701 687 679 674 671 671 670 671 674
881 880 878 877 875 871 868 865 862 858 852 846 842 839 838 833 827 822 818 811 805 799 792 785 779 774 767 761 754 749 744 738 731 725 714 705 695 675 673 672 665 668 668